{"data":{"norad_id":67171,"epoch":"2026-09-20T10:13:57.910080Z","epoch_age_seconds":85389,"freshness":"FRESH","line1":"1 67171U 25303J   26263.42636470  .00011456  00000+0  42511-3 0  9998","line2":"2 67171  43.0002 291.2924 0001155 308.1044  51.9703 15.27585746 42511","mean_motion":15.27585746,"eccentricity":0.0001155,"inclination_deg":43.0002,"raan_deg":291.2924,"arg_perigee_deg":308.1044,"mean_anomaly_deg":51.9703,"bstar":0.00042511,"rev_number":4251,"period_min":94.266394130127,"perigee_km":482.23942549562,"apogee_km":483.82435550933,"semimajor_km":6861.1688905025,"source":"CELESTRAK","updated_at":"2026-09-21T09:00:36.111758Z"}}